STARLINK-32569, 61867

Orbit data source: Space-Track

STARLINK-32569, 61867 is a payload satellite owned by SpaceX/Seattle (US) in LEO that was launched on Thu, 07 Nov 2024 UTC via an FALCON 9 launch vehicle from the Air Force Eastern Test Range (AFETR). Payloads include a variety of satellites, spacecraft, and rockets equipped with specific instruments for various scientific and technological missions. These include communications satellites like Starlink; space stations such as the ISS; scientific satellites like the Hubble; Earth observation satellites from companies like Planet Labs, Umbra, and HawkEye 360; GPS; miniature CubeSats for education and research; and military/defense satellites.

Loading next visibility...
STARLINK-32569 details
Identifier
61867, 2024-202Y
Orbit
LEO
Last TLE update2 days ago
Origin
Flag of USSpaceX/Seattle (US)
ManufacturerSpaceX/Seattle
MissionOperational spacecraft
Bus & MotorSTARLINK V2M, Unknown motor
Mass730 kg wet, ~700 kg dry
Launch date (UTC)
2024-11-07 (1 month ago)
Launch vehicle
FALCON 9
Launch site
Air Force Eastern Test Range (AFETR)
Object type
Payload
Rocket body
Debris
Shape & HBRUnknown
Radar Cross SectionLarge (>1 m²)

Expand to show TLE details & history

TLE from 2 days ago
0 STARLINK-32569
1 61867U 24202Y   24347.16731271 -.00001087  00000-0 -18771-4 0  9992
2 61867  43.0015 283.6820 0001412 269.4560  90.6135 15.40698231  6584
Epoch: 2024-12-12T04:00Z
Definitive object data (Epoch: 2024-12-12T04:00:55.818Z)
Latitude0.00001°
Longitude142.09791°
Altitude443.832 km
Speed7.648 km/s
True Right ascension18h 54m 43s
True Declination0° 00' 00"
Sunlit
Object was in daylight at TLE epoch
Visualization TLE readout
Latitude-15.75995°
Longitude114.51897°
Altitude446.638 km
Speed7.645 km/s
Apparent Right ascension13h 54m 11s
Apparent Declination-49° 00' 55"
Sunlit
Object is in daylight
Visualization observer readout
Local Sidereal Time20:27:14
Azimuth231.379° WSW
Elevation-33.824°
Doppler factor1
Orbital elements
Apogee altitude446.967 km
Perigee altitude445.04 km
Semi-major axis6,824.14 km
Eccentricity0.0001412
Inclination43.0015°
RAAN283.682°
Arg. of periapsis269.456°
True anomaly90.62968°
Mean anomaly90.6135°
Eccentric anomaly90.62159°
Mean motion3.85009 °/min
BSTAR-0.000018771
Orbital period93.5 mins
Loading maneuver chart data...
Loading historical data...
Loading historical data...
Loading historical data...
Loading historical data...
Loading historical data...
Loading historical data...
Loading historical data...

STARLINK-32569 Visibility forecast

Observer location: undefined°, undefined

Span
Click to sort rows by Start time (UTC) header in descending order
Start Az.
Max El. time (UTC)
Max El. Az.
Max El.
End time (UTC)
End Az.
4 mins2024-12-13 22:13:25.047Z182.547° SSW2024-12-13 22:15:25.047Z137.943° SSE19.186°2024-12-13 22:17:25.047Z99.955° ESE
5 mins2024-12-13 23:50:25.047Z250.122° W2024-12-13 23:52:25.047Z247.894° W42.288°2024-12-13 23:55:25.047Z72.085° E
5 mins2024-12-14 01:29:25.047Z294.936° NW2024-12-14 01:31:25.047Z17.813° NNE36.426°2024-12-14 01:34:25.047Z74.887° E
5 mins2024-12-14 03:07:25.047Z291.752° WNW2024-12-14 03:09:25.047Z19.872° NNE44.45°2024-12-14 03:12:25.047Z103.113° ESE
4 mins2024-12-14 04:45:25.047Z257.062° W2024-12-14 04:47:25.047Z207.285° SW23.57°2024-12-14 04:49:25.047Z162.865° S
|